Location: Cheadle
(51.0146°N, 113.5417°W)
Time: 16:30:56
(UTC+00:00)

TIGRISAT - Pass Details

Date: 09 December 2023
Orbit: 597 x 674 km, 97.7° (Epoch: 28 February)

Event Time Altitude Azimuth Distance (km) Brightness Sun altitude
Exits shadow 01:36:26 - 6° (N) 2,659 ? -19.1°
Reaches altitude 10° 01:38:00 10° 0° (N) 2,046 ? -19.3°
Maximum altitude 01:42:06 37° 293° (WNW) 979 ? -19.9°
Drops below altitude 10° 01:46:05 10° 226° (SW) 1,986 ? -20.6°
Sets 01:48:21 0° 218° (SW) 2,875 ? -20.9°
